[[{"header":{"parameterUnit":"m.s-1","parameterCategory":1,"la1":30.2991,"la2":30.254,"lo1":-89.0895,"lo2":-89.0444,"dy":0.0017,"dx":0.0017,"nx":28,"ny":28,"refTime":"2023-09-14T03:00:00:Z","depth":0,"parameterNumber":2,"parameterNumberName":"U-component_of_WINDS"},"data":[0,0,0,0,0,0,0,0,0,0,0,0,0,0,0,0,0,0,0,0,0,0,0,0,0,0,0,0,0,0,0,0,0,0,0,0,0,0,0,0,0,0,0,0,0,0,0,0,0,0,0,0,0,0,0,0,0,0,-1.6531,-1.6531,0,-1.6479,-1.6479,-1.6478,-1.6454,-1.6454,-1.6454,-1.6454,-1.6397,-1.6395,-1.6394,0,0,0,0,0,0,0,0,0,0,0,0,0,-1.6606,-1.6605,-1.6531,-1.6531,-1.653,-1.6479,-1.6479,-1.6478,-1.6454,-1.6454,-1.6454,-1.6455,-1.6398,-1.6396,-1.6394,0,0,0,0,0,0,0,0,0,0,0,0,0,-1.6566,-1.6605,-1.6531,-1.6512,-1.651,-1.6479,-1.6479,-1.6478,-1.6454,-1.6454,-1.6454,-1.6455,-1.6398,-1.6396,-1.6393,-1.6377,0,0,-1.6386,-1.6385,0,0,0,0,0,0,0,0,-1.6568,-1.6563,-1.6516,-1.6514,-1.6511,-1.6473,-1.6484,-1.6444,-1.6454,-1.6475,-1.6454,-1.6455,-1.6422,-1.6418,-1.6408,-1.6374,-1.6372,-1.6386,-1.6384,-1.6383,-1.6383,0,0,0,0,0,0,0,-1.6571,-1.6565,-1.6511,-1.6515,-1.6512,-1.6505,-1.6499,-1.6476,-1.6449,-1.6473,-1.6472,-1.6466,-1.6421,-1.641,-1.6406,-1.6371,-1.6386,-1.6384,-1.6382,-1.6381,-1.632,-1.6319,0,0,0,0,0,0,-1.6577,-1.6568,-1.6512,-1.6509,-1.6541,-1.6503,-1.6497,-1.6485,-1.6449,-1.6443,-1.6466,-1.6465,-1.6414,-1.6409,-1.6404,-1.6382,-1.6383,-1.6381,-1.638,-1.632,-1.632,-1.6319,0,0,0,0,0,0,-1.6579,-1.6573,-1.6514,-1.6538,-1.653,-1.6502,-1.6489,-1.6484,-1.6473,-1.6443,-1.6438,-1.646,-1.6414,-1.6407,-1.6384,-1.6379,-1.638,-1.6378,-1.632,-1.632,-1.6319,-1.6337,0,0,0,0,0,0,-1.6581,-1.6574,-1.6568,-1.6538,-1.6529,-1.6496,-1.6489,-1.6483,-1.647,-1.6468,-1.6436,-1.6431,-1.6413,-1.6387,-1.6381,-1.6376,-1.6376,-1.632,-1.632,-1.632,-1.6337,-1.6337,-1.6338,0,0,0,0,0,-1.6584,-1.6574,-1.6568,-1.6561,-1.6521,-1.6496,-1.6491,-1.6472,-1.647,-1.6463,-1.6444,-1.6432,-1.6381,-1.6385,-1.6378,-1.6372,-1.632,-1.632,-1.632,-1.6336,-1.6337,-1.6338,0,0,0,0,0,0,-1.6603,-1.657,-1.6563,-1.6543,-1.6523,-1.6492,-1.6484,-1.6473,-1.6452,-1.6451,-1.6427,-1.642,-1.6399,-1.6383,-1.6388,-1.6353,-1.6349,-1.6348,-1.6365,-1.6365,-1.6366,-1.637,-1.6374,0,0,0,0,0,-1.6606,-1.6589,-1.656,-1.6546,-1.6536,-1.6512,-1.65,-1.6487,-1.6465,-1.6456,-1.6434,-1.6412,-1.639,-1.6377,-1.6355,-1.6334,-1.6326,-1.6326,-1.6327,-1.6327,-1.6326,-1.6313,-1.6312,-1.6318,-1.6318,-1.6318,0,0,-1.6609,-1.6589,-1.658,-1.6549,-1.6532,-1.6514,-1.6505,-1.6486,-1.6473,-1.6452,-1.6429,-1.6413,-1.6386,-1.6363,-1.6352,-1.6349,-1.6323,-1.6327,-1.6328,-1.6326,-1.6312,-1.6312,-1.6311,-1.6317,-1.6317,-1.6318,0,0,-1.6607,-1.6591,-1.6577,-1.656,-1.6535,-1.6518,-1.6515,-1.6486,-1.6475,-1.6451,-1.6435,-1.6418,-1.6382,-1.6363,-1.6349,-1.6339,-1.6328,-1.6333,-1.6336,-1.6323,-1.6323,-1.6322,-1.6318,-1.6317,-1.6331,-1.6331,-1.6331,0,-1.6615,-1.659,-1.657,-1.6553,-1.654,-1.6521,-1.6506,-1.649,-1.6459,-1.6449,-1.6446,-1.6401,-1.6381,-1.6354,-1.6351,-1.634,-1.6335,-1.6336,-1.6325,-1.6324,-1.6323,-1.6319,-1.6318,-1.6332,-1.6332,-1.6332,-1.6332,0,-1.66,-1.6582,-1.6573,-1.6545,-1.653,-1.6514,-1.6491,-1.6478,-1.6466,-1.645,-1.6425,-1.6401,-1.6375,-1.6367,-1.6355,-1.6337,-1.6336,-1.633,-1.6325,-1.6324,-1.6319,-1.6318,-1.6333,-1.6333,-1.6333,-1.6333,0,0,-1.6609,-1.657,-1.6567,-1.6554,-1.6524,-1.6509,-1.6491,-1.6467,-1.6456,-1.6434,-1.6418,-1.6387,-1.6381,-1.6365,-1.635,-1.6339,-1.6332,-1.6333,-1.6332,-1.6334,-1.6311,-1.6316,-1.6315,-1.6324,-1.6324,-1.6324,-1.6313,0,-1.6603,-1.6572,-1.6554,-1.653,-1.6513,-1.6495,-1.6479,-1.6459,-1.6443,-1.6424,-1.6406,-1.6385,-1.6378,-1.6368,-1.6356,-1.6336,-1.6327,-1.6336,-1.6308,-1.6307,-1.6316,-1.6313,-1.6318,-1.631,-1.6311,-1.6311,-1.6311,0,-1.6592,-1.6572,-1.6547,-1.6519,-1.6511,-1.6498,-1.6473,-1.6456,-1.6432,-1.6421,-1.6403,-1.6388,-1.6367,-1.6364,-1.6334,-1.634,-1.6327,-1.6316,-1.6315,-1.6311,-1.6309,-1.6309,-1.6306,-1.6305,-1.6308,-1.6308,-1.6308,0,-1.6601,-1.6568,-1.6548,-1.6537,-1.6504,-1.6495,-1.648,-1.6456,-1.6442,-1.642,-1.641,-1.6386,-1.6372,-1.6352,-1.6331,-1.6331,-1.6303,-1.6298,-1.6292,-1.6292,-1.6287,-1.6287,-1.6282,-1.6279,-1.6279,-1.6279,-1.6279,0,-1.6596,-1.6581,-1.6552,-1.654,-1.6522,-1.6501,-1.6484,-1.6467,-1.6446,-1.6429,-1.6411,-1.6396,-1.6368,-1.6349,-1.6331,-1.6309,-1.6303,-1.6292,-1.6288,-1.6294,-1.6295,-1.6285,-1.6285,-1.6278,-1.6278,-1.6278,-1.6278,0,-1.6604,-1.6584,-1.6561,-1.6532,-1.6524,-1.6512,-1.6486,-1.6473,-1.6456,-1.6435,-1.6428,-1.6401,-1.6377,-1.6354,-1.6321,-1.6309,-1.6287,-1.6281,-1.6296,-1.6293,-1.6288,-1.6289,-1.6276,-1.6273,-1.6272,-1.6272,-1.6272,0,-1.6602,-1.659,-1.656,-1.6548,-1.6535,-1.6516,-1.6502,-1.648,-1.6465,-1.6436,-1.6426,-1.6401,-1.638,-1.6343,-1.6319,-1.6293,-1.6287,-1.6284,-1.6283,-1.6289,-1.6286,-1.6287,-1.6286,-1.6285,-1.6285,-1.6285,-1.6285,0,-1.6601,-1.6592,-1.6573,-1.6551,-1.6535,-1.6515,-1.6495,-1.6486,-1.646,-1.6445,-1.6421,-1.6405,-1.6372,-1.6347,-1.6319,-1.6302,-1.6288,-1.6285,-1.6283,-1.6289,-1.6298,-1.6293,-1.6297,-1.6286,-1.6286,-1.6286,-1.6286,-1.6286,-1.6604,-1.6592,-1.6569,-1.6549,-1.6532,-1.6513,-1.65,-1.6481,-1.6461,-1.6434,-1.6421,-1.6397,-1.6371,-1.6333,-1.6316,-1.6295,-1.6292,-1.6288,-1.6287,-1.6286,-1.6288,-1.6301,-1.629,-1.629,-1.629,-1.629,-1.629,0,-1.6602,-1.6586,-1.6567,-1.6541,-1.6524,-1.6514,-1.6492,-1.6478,-1.6457,-1.6435,-1.6415,-1.6387,-1.6363,-1.6337,-1.6311,-1.6299,-1.6292,-1.6293,-1.6293,-1.629,-1.6292,-1.6297,-1.6299,-1.6299,-1.6299,-1.6299,-1.6299,-1.6299,-1.6599,-1.6579,-1.6567,-1.6538,-1.6522,-1.6499,-1.6487,-1.6469,-1.6452,-1.6422,-1.6402,-1.6386,-1.6362,-1.6333,-1.631,-1.6303,-1.6294,-1.6296,-1.6287,-1.629,-1.629,-1.6289,-1.6294,-1.6294,-1.6294,-1.6286,-1.6286,-1.6286]},{"header":{"parameterUnit":"m.s-1","parameterCategory":1,"la1":30.2991,"la2":30.254,"lo1":-89.0895,"lo2":-89.0444,"dy":0.0017,"dx":0.0017,"nx":28,"ny":28,"refTime":"2023-09-14T03:00:00:Z","depth":0,"parameterNumber":3,"parameterNumberName":"V-component_of_WINDS"},"data":[0,0,0,0,0,0,0,0,0,0,0,0,0,0,0,0,0,0,0,0,0,0,0,0,0,0,0,0,0,0,0,0,0,0,0,0,0,0,0,0,0,0,0,0,0,0,0,0,0,0,0,0,0,0,0,0,0,0,-1.3906,-1.3908,0,-1.4031,-1.4033,-1.4034,-1.4114,-1.4114,-1.4115,-1.4115,-1.4239,-1.4242,-1.4245,0,0,0,0,0,0,0,0,0,0,0,0,0,-1.3734,-1.3736,-1.3906,-1.3908,-1.3909,-1.4031,-1.4033,-1.4034,-1.4114,-1.4114,-1.4115,-1.4116,-1.4238,-1.4241,-1.4245,0,0,0,0,0,0,0,0,0,0,0,0,0,-1.3828,-1.3737,-1.3906,-1.3964,-1.397,-1.4031,-1.4033,-1.4035,-1.4114,-1.4114,-1.4115,-1.4116,-1.4237,-1.4241,-1.4245,-1.4257,0,0,-1.4258,-1.426,0,0,0,0,0,0,0,0,-1.3823,-1.3835,-1.3954,-1.396,-1.3967,-1.4058,-1.4017,-1.4109,-1.4114,-1.4059,-1.4115,-1.4116,-1.4178,-1.4187,-1.4209,-1.4262,-1.4268,-1.4259,-1.4261,-1.4263,-1.4264,0,0,0,0,0,0,0,-1.3816,-1.383,-1.3956,-1.3955,-1.3964,-1.3982,-1.3997,-1.4035,-1.4113,-1.4064,-1.407,-1.4084,-1.4182,-1.4204,-1.4212,-1.427,-1.4259,-1.4262,-1.4265,-1.4267,-1.4339,-1.4339,0,0,0,0,0,0,-1.3801,-1.3824,-1.3952,-1.3959,-1.3896,-1.3985,-1.4001,-1.4028,-1.4113,-1.4126,-1.4083,-1.4087,-1.4197,-1.4207,-1.4217,-1.4236,-1.4263,-1.4267,-1.4269,-1.434,-1.4339,-1.4338,0,0,0,0,0,0,-1.3797,-1.3812,-1.3947,-1.3893,-1.3912,-1.3987,-1.4017,-1.403,-1.4053,-1.4127,-1.4141,-1.4092,-1.4198,-1.4211,-1.4247,-1.4241,-1.4269,-1.4273,-1.4341,-1.434,-1.4339,-1.4274,0,0,0,0,0,0,-1.3792,-1.381,-1.3816,-1.3893,-1.3914,-1.3975,-1.4017,-1.4032,-1.406,-1.4067,-1.4139,-1.4152,-1.4199,-1.424,-1.4251,-1.4248,-1.4276,-1.4341,-1.434,-1.4339,-1.4277,-1.4271,-1.4266,0,0,0,0,0,-1.3785,-1.3791,-1.3815,-1.383,-1.3924,-1.3975,-1.3987,-1.4042,-1.406,-1.4066,-1.4114,-1.415,-1.424,-1.4243,-1.4256,-1.4254,-1.4342,-1.4341,-1.4339,-1.4279,-1.4272,-1.4266,0,0,0,0,0,0,-1.371,-1.3803,-1.383,-1.3862,-1.391,-1.3988,-1.3997,-1.4033,-1.4076,-1.408,-1.4146,-1.4161,-1.419,-1.4226,-1.4227,-1.427,-1.4295,-1.4296,-1.4245,-1.4239,-1.4234,-1.4224,-1.428,0,0,0,0,0,-1.3697,-1.3732,-1.3811,-1.3831,-1.3854,-1.3921,-1.3946,-1.3984,-1.4036,-1.4057,-1.4107,-1.4155,-1.4194,-1.4219,-1.4259,-1.4283,-1.4299,-1.4288,-1.4282,-1.4277,-1.4277,-1.4292,-1.4288,-1.4334,-1.4334,-1.4334,0,0,-1.3671,-1.3726,-1.3744,-1.3817,-1.3859,-1.3893,-1.3938,-1.3971,-1.3997,-1.4061,-1.4099,-1.4137,-1.4195,-1.4225,-1.424,-1.4255,-1.4268,-1.4275,-1.4271,-1.4274,-1.4291,-1.4286,-1.4282,-1.4333,-1.4333,-1.4333,0,0,-1.3641,-1.3686,-1.3708,-1.3749,-1.3813,-1.3858,-1.3862,-1.3936,-1.3964,-1.4003,-1.4052,-1.4083,-1.4149,-1.4188,-1.4217,-1.4202,-1.4237,-1.4213,-1.4184,-1.4198,-1.4194,-1.4191,-1.4186,-1.4183,-1.4213,-1.4213,-1.4213,0,-1.3599,-1.3654,-1.3714,-1.3746,-1.3776,-1.3838,-1.386,-1.3897,-1.3969,-1.3989,-1.4004,-1.409,-1.4133,-1.4173,-1.4169,-1.419,-1.4197,-1.4205,-1.419,-1.4188,-1.4186,-1.4181,-1.4179,-1.4209,-1.421,-1.421,-1.421,0,-1.36,-1.3637,-1.3647,-1.3717,-1.3749,-1.3775,-1.3839,-1.3864,-1.39,-1.3942,-1.3981,-1.4035,-1.4087,-1.41,-1.4134,-1.4145,-1.4152,-1.4178,-1.4205,-1.4177,-1.4174,-1.4173,-1.4205,-1.4206,-1.4207,-1.4208,0,0,-1.3525,-1.363,-1.3632,-1.3665,-1.374,-1.3769,-1.3797,-1.385,-1.387,-1.3918,-1.3943,-1.3999,-1.4024,-1.4056,-1.4096,-1.4108,-1.4092,-1.4133,-1.4135,-1.4123,-1.4106,-1.4086,-1.4083,-1.4116,-1.4116,-1.4116,-1.4102,0,-1.3506,-1.3563,-1.3619,-1.3655,-1.369,-1.3748,-1.3774,-1.3821,-1.3862,-1.3896,-1.3941,-1.3979,-1.4009,-1.4029,-1.4044,-1.4091,-1.409,-1.4093,-1.4139,-1.414,-1.4123,-1.4082,-1.4061,-1.4045,-1.4101,-1.4101,-1.41,0,-1.3491,-1.3538,-1.3578,-1.365,-1.3667,-1.3688,-1.3742,-1.3774,-1.3829,-1.3858,-1.3894,-1.3936,-1.3969,-1.3992,-1.4038,-1.4038,-1.4061,-1.4087,-1.4087,-1.4094,-1.4118,-1.4087,-1.4041,-1.4038,-1.4099,-1.4099,-1.4099,0,-1.3433,-1.3506,-1.354,-1.3566,-1.365,-1.3664,-1.37,-1.3756,-1.3784,-1.383,-1.3849,-1.3897,-1.3923,-1.3959,-1.4013,-1.4025,-1.4052,-1.408,-1.4076,-1.4075,-1.4079,-1.4078,-1.4036,-1.4093,-1.4093,-1.4093,-1.4093,0,-1.3405,-1.3427,-1.3515,-1.3535,-1.3562,-1.3625,-1.3649,-1.369,-1.3739,-1.3768,-1.3821,-1.3846,-1.3916,-1.395,-1.3992,-1.4023,-1.4034,-1.4058,-1.4068,-1.4053,-1.405,-1.4068,-1.4071,-1.4093,-1.4093,-1.4093,-1.4093,0,-1.3344,-1.3404,-1.3444,-1.3522,-1.3541,-1.3557,-1.3623,-1.3645,-1.3689,-1.3724,-1.3736,-1.3805,-1.3847,-1.3905,-1.3964,-1.3993,-1.4018,-1.4035,-1.3999,-1.4006,-1.3999,-1.3998,-1.3967,-1.3966,-1.4023,-1.4022,-1.4022,0,-1.3323,-1.3342,-1.3421,-1.3445,-1.348,-1.3517,-1.3547,-1.3609,-1.3638,-1.3702,-1.3716,-1.3763,-1.3804,-1.3868,-1.3922,-1.3968,-1.3987,-1.3973,-1.3994,-1.3978,-1.3986,-1.3985,-1.3987,-1.3967,-1.3966,-1.3965,-1.3965,0,-1.3279,-1.3307,-1.3349,-1.34,-1.3435,-1.3478,-1.3523,-1.3539,-1.3611,-1.364,-1.3685,-1.3717,-1.3778,-1.3824,-1.3877,-1.3912,-1.395,-1.3958,-1.3959,-1.3943,-1.3922,-1.3933,-1.3985,-1.3958,-1.3959,-1.3959,-1.396,-1.396,-1.3237,-1.3257,-1.3316,-1.3361,-1.3402,-1.3443,-1.3468,-1.3515,-1.3554,-1.361,-1.3644,-1.3687,-1.3742,-1.3818,-1.3851,-1.3885,-1.39,-1.3902,-1.3903,-1.3902,-1.3897,-1.3917,-1.3895,-1.3895,-1.3895,-1.3896,-1.3896,0,-1.3196,-1.3237,-1.3278,-1.334,-1.3375,-1.3409,-1.3461,-1.3487,-1.3525,-1.3574,-1.3613,-1.3664,-1.3709,-1.3767,-1.3815,-1.3831,-1.3849,-1.3841,-1.384,-1.3848,-1.3881,-1.3875,-1.3825,-1.3825,-1.3825,-1.3825,-1.3825,-1.3825,-1.3179,-1.3214,-1.3249,-1.3305,-1.3346,-1.339,-1.3417,-1.3455,-1.3494,-1.3549,-1.3587,-1.3625,-1.3677,-1.373,-1.3771,-1.3787,-1.3802,-1.3789,-1.381,-1.3839,-1.3846,-1.3852,-1.3846,-1.3792,-1.3792,-1.3774,-1.3774,-1.3774]}]]